This demonstration page uses our WeatherBlox Daily Observations layout. Learn more.

Left ArrowRight Arrow

36.17497, -115.13722

Hourly Observations for December 10, 2020

Temp ( °F °C ) Dew Point ( °F °C ) Humidity (%) Winds ( mph kmh ) Pressure ( in mb ) Visibility ( mi km ) Precip ( " mm )
12:53 am 00:53 Mostly Clear 50 10 15 -9.4 25 25 N 5 7 29.93 1014 10 16.0934 0 0
1:53 am 01:53 Clear 47 8.3 14 -10 26 26 WNW 6 9 29.92 1013 10 16.0934 0 0
2:53 am 02:53 Mostly Clear 46 7.8 16 -8.9 30 30 W 3 6 29.92 1013 10 16.0934 0 0
3:53 am 03:53 Clear 47 8.3 16 -8.9 29 29 NW 3 6 29.92 1013 10 16.0934 0 0
4:53 am 04:53 Clear 45 7.2 16 -8.9 31 31 NNW 7 11 29.91 1013 10 16.0934 0 0
5:53 am 05:53 Clear 43 6.1 16 -8.9 34 34 WNW 7 11 29.93 1014 10 16.0934 0 0
6:53 am 06:53 Sunny 44 6.7 16 -8.9 32 32 WNW 7 11 29.93 1014 10 16.0934 0 0
7:53 am 07:53 Sunny 47 8.3 16 -8.9 29 29 WNW 5 7 29.94 1014 10 16.0934 0 0
8:53 am 08:53 Sunny 56 13.3 17 -8.3 22 22 Calm 29.95 1014 10 16.0934 0 0
9:53 am 09:53 Sunny 59 15 12 -11.1 15 15 N 3 6 29.95 1014 10 16.0934 0 0
10:53 am 10:53 Sunny 60 15.6 13 -10.6 16 16 NNE 5 7 29.93 1014 10 16.0934 0 0
11:53 am 11:53 Sunny 61 16.1 12 -11.1 14 14 Calm 29.9 1013 10 16.0934 0 0
12:53 pm 12:53 Sunny 62 16.7 12 -11.1 14 14 VRB 3 6 29.88 1012 10 16.0934 0 0
1:53 pm 13:53 Sunny 63 17.2 12 -11.1 13 13 Calm 29.87 1011 10 16.0934 0 0
2:53 pm 14:53 Sunny 65 18.3 12 -11.1 13 13 Calm 29.87 1012 10 16.0934 0 0
3:53 pm 15:53 Sunny 64 17.8 11 -11.7 12 12 SSE 3 6 29.88 1012 10 16.0934 0 0
4:53 pm 16:53 Clear 61 16.1 14 -10 16 16 S 3 6 29.89 1012 10 16.0934 0 0
5:53 pm 17:53 Clear 56 13.3 14 -10 19 19 Calm 29.91 1013 9 14.48406 0 0
6:53 pm 18:53 Clear 52 11.1 17 -8.3 25 25 NW 5 7 29.92 1013 10 16.0934 0 0
7:53 pm 19:53 Clear 50 10 17 -8.3 27 27 NW 6 9 29.93 1014 10 16.0934 0 0
8:53 pm 20:53 Clear 47 8.3 16 -8.9 29 29 WSW 3 6 29.94 1014 10 16.0934 0 0
9:53 pm 21:53 Clear 46 7.8 17 -8.3 31 31 WNW 7 11 29.95 1014 10 16.0934 0 0
10:53 pm 22:53 Clear 47 8.3 15 -9.4 28 28 NW 5 7 29.94 1014 10 16.0934 0 0
11:53 pm 23:53 Clear 46 7.8 13 -10.6 26 26 N 6 9 29.95 1014 10 16.0934 0 0

Powered by AerisWeather